Location: Lewisville
(33.0462°N, 96.9942°W)
Time: 19:55:29
(UTC-06:00)

Envisat - Pass Details

Date: 22 September 2019
Orbit: 764 x 766 km, 98.1° (Epoch: 27 February)

Event Time Altitude Azimuth Distance (km) Brightness Sun altitude
Rises 19:41:42 0° 167° (SSE) 3,217 6.1 -4.4°
Reaches altitude 10° 19:43:59 10° 167° (SSE) 2,295 5.3 -4.8°
Maximum altitude 19:49:03 88° 254° (WSW) 771 3.1 -5.9°
Drops below altitude 10° 19:54:09 10° 347° (NNW) 2,309 5.7 -7.0°
Sets 19:56:28 0° 348° (NNW) 3,238 6.5 -7.4°
